Private Wetterstation Ehingen
Wetterdaten: aktuell Dienstag, 28.03.2017 20:00
Datum Zeit Temperatur Luftfeuchte Luftdruck Regen Wind Richtung Richtung Sonnenschein Taupunkt Windchill Windben
28.03.2017 20:00 15,8 C 54 % 1023,2 hPa 0,0 l/m 4,8 km/h (1 Bft) W 268 0 min 6,5 C 15,8 C 5,7 km/h (2 Bft)
28.03.2017 19:55 15,9 C 54 % 1023,2 hPa 0,0 l/m 7,6 km/h (2 Bft) W 273 0 min 6,6 C 15,3 C 10,5 km/h (2 Bft)
28.03.2017 19:50 15,9 C 54 % 1023,2 hPa 0,0 l/m 0,0 km/h (0 Bft) W 268 0 min 6,6 C 15,9 C 6,7 km/h (2 Bft)
28.03.2017 19:45 16,1 C 54 % 1023,2 hPa 0,0 l/m 0,0 km/h (0 Bft) W 265 0 min 6,8 C 16,1 C 0,0 km/h (0 Bft)
28.03.2017 19:40 16,2 C 54 % 1023,2 hPa 0,0 l/m 0,0 km/h (0 Bft) W-SW 254 0 min 6,9 C 16,2 C 0,0 km/h (0 Bft)
28.03.2017 19:35 16,3 C 54 % 1023,1 hPa 0,0 l/m 0,0 km/h (0 Bft) W-SW 254 0 min 7,0 C 16,3 C 0,0 km/h (0 Bft)
28.03.2017 19:30 16,4 C 53 % 1023,1 hPa 0,0 l/m 4,8 km/h (1 Bft) W-SW 254 0 min 6,8 C 16,4 C 0,0 km/h (0 Bft)
28.03.2017 19:25 16,5 C 53 % 1023,1 hPa 0,0 l/m 4,8 km/h (1 Bft) W-SW 252 0 min 6,9 C 16,5 C 7,6 km/h (2 Bft)
28.03.2017 19:20 16,6 C 53 % 1023,1 hPa 0,0 l/m 5,7 km/h (2 Bft) W 273 0 min 7,0 C 16,6 C 8,6 km/h (2 Bft)
28.03.2017 19:15 16,7 C 53 % 1023,1 hPa 0,0 l/m 4,8 km/h (1 Bft) W-SW 256 0 min 7,1 C 16,7 C 8,6 km/h (2 Bft)
28.03.2017 19:10 16,8 C 53 % 1023,0 hPa 0,0 l/m 4,8 km/h (1 Bft) W-SW 244 0 min 7,2 C 16,8 C 7,6 km/h (2 Bft)
28.03.2017 19:05 16,9 C 53 % 1023,0 hPa 0,0 l/m 7,6 km/h (2 Bft) W 271 0 min 7,3 C 16,3 C 11,4 km/h (2 Bft)
28.03.2017 19:00 17,1 C 53 % 1023,0 hPa 0,0 l/m 6,7 km/h (2 Bft) SW 232 0 min 7,4 C 17,0 C 8,6 km/h (2 Bft)
28.03.2017 18:55 17,2 C 53 % 1022,9 hPa 0,0 l/m 6,7 km/h (2 Bft) W 280 0 min 7,5 C 17,1 C 10,5 km/h (2 Bft)
28.03.2017 18:50 17,4 C 52 % 1022,9 hPa 0,0 l/m 4,8 km/h (1 Bft) W 263 0 min 7,4 C 17,4 C 7,6 km/h (2 Bft)
28.03.2017 18:45 17,6 C 52 % 1022,9 hPa 0,0 l/m 4,8 km/h (1 Bft) W 260 0 min 7,6 C 17,6 C 6,7 km/h (2 Bft)
28.03.2017 18:40 17,8 C 52 % 1022,8 hPa 0,0 l/m 6,7 km/h (2 Bft) S-SW 208 0 min 7,8 C 17,7 C 8,6 km/h (2 Bft)
28.03.2017 18:35 18,0 C 52 % 1022,8 hPa 0,0 l/m 8,6 km/h (2 Bft) SW 226 0 min 8,0 C 17,0 C 13,3 km/h (3 Bft)
28.03.2017 18:30 18,2 C 52 % 1022,7 hPa 0,0 l/m 10,5 km/h (2 Bft) SW 233 0 min 8,2 C 16,5 C 17,6 km/h (3 Bft)
28.03.2017 18:25 18,3 C 52 % 1022,7 hPa 0,0 l/m 12,4 km/h (2 Bft) W 268 0 min 8,3 C 15,9 C 17,1 km/h (3 Bft)
28.03.2017 18:20 18,4 C 52 % 1022,7 hPa 0,0 l/m 10,5 km/h (2 Bft) W 264 0 min 8,4 C 16,7 C 17,6 km/h (3 Bft)
_ Min-Zeit 07:45 16:00 15:35 - 19:50 - - - 07:00 09:00 19:45
Minimum _ 0,0 C 50 % 1022,3 hPa - 0,0 km/h (0 Bft) - - - -4,0 C -1,0 C 0,0 km/h (0 Bft)
_ Max-Zeit 15:35 09:00 07:45 20:00 10:05 - - 15:45 15:25 15:25 18:10
Maximum _ 20,2 C 79 % 1025,8 hPa 0,0 l/m 13,3 km/h
W-SW (3 Bft)
- - 5 min 9,7 C 20,2 C 18,5 km/h
W-SW (3 Bft)
Durchschnitt _ 9,7 C 63 % 1023,8 hPa #0,0 l/m 3,6 km/h (1 Bft) W - #8:30 h 2,7 C 9,3 C 5,4 km/h (2 Bft)